When you browse on this site, cookies collect data to enhance your experience and personalize the content and advertising you see.
Visit our Privacy Policy to learn more. By continuing to use the site, you agree to this use of cookies and data.
  • In Lithuania
  • List of Countries
  • For 7 days
  • Water Temperature
  • Satellite Maps
  • Weather Map
  • Weather Widgets
  • user-avatar
    Login

    Hourly Weather Yaloch

    Today, 18 April, Thursday

    Time Temperature Precipitation Wind Pressure Humidity
    00:00 +8°C° 0 mm 2 mps 758 mmHg 77%
    01:00 +7°C° 0 mm 2 mps 758 mmHg 79%
    02:00 +7°C° 0 mm 2 mps 758 mmHg 78%
    03:00 +8°C° 0 mm 1 mps 758 mmHg 80%
    04:00 +7°C° 0 mm 1 mps 759 mmHg 82%
    05:00 +7°C° 0 mm 1 mps 759 mmHg 84%
    06:00 +9°C° 0 mm 1 mps 759 mmHg 77%
    07:00 +10°C° 0 mm 1 mps 759 mmHg 71%
    08:00 +12°C° 0 mm 1 mps 760 mmHg 63%
    09:00 +14°C° 0 mm 1 mps 760 mmHg 58%
    10:00 +15°C° 0 mm 2 mps 760 mmHg 53%
    11:00 +17°C° 0 mm 3 mps 760 mmHg 48%
    12:00 +17°C° 0 mm 3 mps 759 mmHg 45%
    13:00 +18°C° 0 mm 3 mps 759 mmHg 42%
    14:00 +19°C° 0 mm 4 mps 759 mmHg 40%
    15:00 +18°C° 0 mm 4 mps 758 mmHg 41%
    16:00 +18°C° 0 mm 4 mps 758 mmHg 43%
    17:00 +18°C° 0 mm 4 mps 758 mmHg 45%
    18:00 +15°C° 0 mm 4 mps 757 mmHg 51%
    19:00 +13°C° 0 mm 4 mps 757 mmHg 56%
    20:00 +11°C° 0 mm 3 mps 757 mmHg 62%
    21:00 +11°C° 0 mm 3 mps 758 mmHg 63%
    22:00 +10°C° 0 mm 3 mps 758 mmHg 65%
    23:00 +8°C° 0 mm 4 mps 758 mmHg 66%

    Tomorrow, 19 April, Friday

    Time Temperature Precipitation Wind Pressure Humidity
    00:00 +8°C° 0 mm 3 mps 758 mmHg 67%
    01:00 +8°C° 0 mm 3 mps 758 mmHg 68%
    02:00 +7°C° 0 mm 3 mps 759 mmHg 69%
    03:00 +7°C° 0 mm 3 mps 759 mmHg 72%
    04:00 +5°C° 0 mm 3 mps 759 mmHg 74%
    05:00 +4°C° 0 mm 3 mps 759 mmHg 77%
    06:00 +5°C° 0 mm 4 mps 759 mmHg 70%
    07:00 +7°C° 0 mm 4 mps 760 mmHg 63%
    08:00 +8°C° 0 mm 5 mps 760 mmHg 56%
    09:00 +9°C° 0 mm 5 mps 760 mmHg 52%
    10:00 +10°C° 0 mm 5 mps 760 mmHg 47%
    11:00 +13°C° 0 mm 5 mps 760 mmHg 43%
    12:00 +13°C° 0 mm 5 mps 760 mmHg 41%
    13:00 +14°C° 0 mm 5 mps 760 mmHg 40%
    14:00 +15°C° 0 mm 5 mps 760 mmHg 38%
    15:00 +14°C° 0 mm 4 mps 759 mmHg 39%
    16:00 +14°C° 0 mm 4 mps 759 mmHg 40%
    17:00 +14°C° 0 mm 4 mps 759 mmHg 41%
    18:00 +13°C° 0 mm 3 mps 759 mmHg 46%
    19:00 +11°C° 0 mm 3 mps 759 mmHg 52%
    20:00 +9°C° 0 mm 2 mps 759 mmHg 57%
    21:00 +10°C° 0 mm 1 mps 759 mmHg 58%
    22:00 +9°C° 0 mm 1 mps 759 mmHg 60%
    23:00 +8°C° 0 mm 1 mps 759 mmHg 61%

    Day after tomorrow, 20 April, Saturday

    Time Temperature Precipitation Wind Pressure Humidity
    00:00 +8°C° 0 mm 1 mps 759 mmHg 62%
    01:00 +8°C° 0 mm 1 mps 759 mmHg 63%
    02:00 +7°C° 0 mm 1 mps 759 mmHg 64%
    03:00 +7°C° 0 mm 1 mps 759 mmHg 65%
    04:00 +7°C° 0 mm 1 mps 759 mmHg 67%
    05:00 +6°C° 0 mm 1 mps 758 mmHg 68%
    06:00 +8°C° 0 mm 1 mps 758 mmHg 64%
    07:00 +8°C° 0 mm 2 mps 758 mmHg 61%
    08:00 +10°C° 0 mm 2 mps 758 mmHg 57%
    09:00 +12°C° 0 mm 2 mps 758 mmHg 53%
    10:00 +14°C° 0 mm 2 mps 758 mmHg 50%
    11:00 +14°C° 0 mm 3 mps 757 mmHg 46%
    12:00 +16°C° 0 mm 3 mps 757 mmHg 45%
    13:00 +16°C° 0 mm 3 mps 757 mmHg 43%
    14:00 +16°C° 0 mm 2 mps 756 mmHg 41%
    15:00 +16°C° 0 mm 3 mps 756 mmHg 40%
    16:00 +16°C° 0 mm 3 mps 756 mmHg 40%
    17:00 +16°C° 0 mm 3 mps 755 mmHg 39%
    18:00 +14°C° 0 mm 3 mps 755 mmHg 44%
    19:00 +13°C° 0 mm 2 mps 755 mmHg 49%
    20:00 +12°C° 0 mm 2 mps 755 mmHg 54%
    21:00 +10°C° 0 mm 2 mps 755 mmHg 61%
    22:00 +9°C° 0 mm 2 mps 754 mmHg 67%
    23:00 +8°C° 0 mm 2 mps 754 mmHg 74%

    21 April, Sunday

    Time Temperature Precipitation Wind Pressure Humidity
    00:00 +7°C° 0 mm 2 mps 754 mmHg 79%
    01:00 +8°C° 0 mm 1 mps 754 mmHg 83%
    02:00 +8°C° 0 mm 1 mps 753 mmHg 87%
    03:00 +8°C° 0 mm 1 mps 753 mmHg 87%
    04:00 +8°C° 0 mm 1 mps 753 mmHg 87%
    05:00 +8°C° 0 mm 1 mps 753 mmHg 88%
    06:00 +9°C° 0 mm 1 mps 753 mmHg 83%
    07:00 +10°C° 0 mm 1 mps 753 mmHg 78%
    08:00 +11°C° 0 mm 1 mps 752 mmHg 73%
    09:00 +11°C° 0.6 mm 1 mps 752 mmHg 74%
    10:00 +10°C° 0.6 mm 2 mps 752 mmHg 74%
    11:00 +12°C° 0.6 mm 2 mps 752 mmHg 74%
    12:00 +12°C° 0.2 mm 2 mps 751 mmHg 72%
    13:00 +12°C° 0.2 mm 2 mps 751 mmHg 70%
    14:00 +12°C° 0.2 mm 3 mps 751 mmHg 68%
    15:00 +13°C° 0 mm 2 mps 751 mmHg 66%
    16:00 +13°C° 0 mm 2 mps 751 mmHg 64%
    17:00 +14°C° 0 mm 2 mps 751 mmHg 62%
    18:00 +12°C° 0 mm 2 mps 751 mmHg 68%
    19:00 +10°C° 0 mm 2 mps 751 mmHg 74%
    20:00 +9°C° 0 mm 2 mps 751 mmHg 80%
    21:00 +8°C° 0 mm 2 mps 751 mmHg 83%
    22:00 +8°C° 0 mm 2 mps 752 mmHg 85%
    23:00 +7°C° 0 mm 3 mps 752 mmHg 87%

    22 April, Monday

    Time Temperature Precipitation Wind Pressure Humidity
    00:00 +7°C° 0 mm 3 mps 752 mmHg 87%
    01:00 +6°C° 0 mm 4 mps 752 mmHg 88%
    02:00 +6°C° 0 mm 4 mps 752 mmHg 88%
    03:00 +5°C° 0 mm 4 mps 752 mmHg 90%
    04:00 +5°C° 0 mm 5 mps 752 mmHg 92%
    05:00 +5°C° 0 mm 5 mps 753 mmHg 94%
    06:00 +6°C° 0 mm 5 mps 753 mmHg 90%
    07:00 +7°C° 0 mm 5 mps 753 mmHg 85%
    08:00 +8°C° 0 mm 6 mps 754 mmHg 81%
    09:00 +9°C° 0.1 mm 6 mps 754 mmHg 74%
    10:00 +11°C° 0.1 mm 6 mps 754 mmHg 67%
    11:00 +13°C° 0.1 mm 6 mps 755 mmHg 61%
    12:00 +14°C° 0.3 mm 6 mps 754 mmHg 57%
    13:00 +15°C° 0.3 mm 6 mps 754 mmHg 53%
    14:00 +16°C° 0.3 mm 6 mps 754 mmHg 48%
    15:00 +15°C° 0.2 mm 6 mps 754 mmHg 49%
    16:00 +15°C° 0.2 mm 6 mps 754 mmHg 49%
    17:00 +15°C° 0.2 mm 5 mps 754 mmHg 49%
    18:00 +14°C° 0 mm 5 mps 755 mmHg 52%
    19:00 +13°C° 0 mm 5 mps 755 mmHg 55%
    20:00 +11°C° 0 mm 6 mps 756 mmHg 58%
    21:00 +10°C° 0 mm 6 mps 756 mmHg 60%
    22:00 +9°C° 0 mm 5 mps 756 mmHg 62%
    23:00 +8°C° 0 mm 5 mps 757 mmHg 64%

    23 April, Tuesday

    Time Temperature Precipitation Wind Pressure Humidity
    00:00 +8°C° 0 mm 5 mps 757 mmHg 64%
    01:00 +7°C° 0 mm 5 mps 757 mmHg 65%
    02:00 +7°C° 0 mm 5 mps 757 mmHg 66%
    03:00 +6°C° 0 mm 5 mps 757 mmHg 66%
    04:00 +6°C° 0 mm 5 mps 757 mmHg 67%
    05:00 +6°C° 0 mm 5 mps 757 mmHg 68%
    06:00 +7°C° 0 mm 6 mps 757 mmHg 64%
    07:00 +8°C° 0 mm 7 mps 758 mmHg 60%
    08:00 +9°C° 0 mm 7 mps 758 mmHg 56%
    09:00 +11°C° 0 mm 8 mps 758 mmHg 51%
    10:00 +12°C° 0 mm 8 mps 758 mmHg 47%
    11:00 +13°C° 0 mm 8 mps 758 mmHg 43%
    12:00 +15°C° 0 mm 8 mps 757 mmHg 42%
    13:00 +16°C° 0 mm 8 mps 757 mmHg 41%
    14:00 +16°C° 0 mm 8 mps 757 mmHg 40%
    15:00 +16°C° 0 mm 8 mps 756 mmHg 41%
    16:00 +16°C° 0 mm 8 mps 756 mmHg 43%
    17:00 +16°C° 0 mm 7 mps 756 mmHg 45%
    18:00 +15°C° 0 mm 7 mps 756 mmHg 47%
    19:00 +12°C° 0 mm 7 mps 756 mmHg 49%
    20:00 +11°C° 0 mm 6 mps 756 mmHg 51%
    21:00 +10°C° 0 mm 6 mps 756 mmHg 54%
    22:00 +10°C° 0 mm 6 mps 756 mmHg 56%
    23:00 +9°C° 0 mm 6 mps 756 mmHg 59%
    Show more